This demonstration page uses our WeatherBlox Daily Observations layout. Learn more.

Hourly Observations for December 28, 2017

Temp ( °F °C ) Dew Point ( °F °C ) Humidity (%) Winds ( mph kmh ) Pressure ( in mb ) Visibility ( mi km ) Precip ( " mm )
12:53 am 00:53 Clear 8 -13.3 1 -17.2 73 73 Calm 30.73 1041 10 16.0934 0 0
1:53 am 01:53 Clear 9 -12.8 1 -17.2 70 70 NNE 5 7 30.72 1040 10 16.0934 0 0
2:53 am 02:53 Clear 9 -12.8 2 -16.7 73 73 N 5 7 30.72 1040 10 16.0934 0 0
3:53 am 03:53 Clear 9 -12.8 2 -16.7 73 73 NNE 5 7 30.73 1041 10 16.0934 0 0
4:53 am 04:53 Clear 9 -12.8 3 -16.1 77 77 NNE 3 6 30.71 1040 10 16.0934 0 0
5:53 am 05:53 Clear 8 -13.3 2 -16.7 76 76 Calm 30.73 1041 10 16.0934 0 0
6:53 am 06:53 Clear 9 -12.8 4 -15.6 80 80 NE 3 6 30.74 1041 10 16.0934 0 0
7:53 am 07:53 Cloudy 10 -12.2 4 -15.6 76 76 ENE 5 7 30.73 1041 10 16.0934 0 0
8:53 am 08:53 Cloudy 11 -11.7 4 -15.6 73 73 E 9 15 30.71 1040 10 16.0934 0 0
9:53 am 09:53 Cloudy 12 -11.1 3 -16.1 67 67 E 8 13 30.71 1040 10 16.0934 0 0
10:53 am 10:53 Cloudy 14 -10 3 -16.1 61 61 E 12 19 30.71 1040 10 16.0934 0 0
11:53 am 11:53 Cloudy 15 -9.4 4 -15.6 61 61 E 9 15 30.68 1039 10 16.0934 0 0
12:53 pm 12:53 Cloudy 16 -8.9 4 -15.6 59 59 ESE 6 9 30.63 1037 10 16.0934 0 0
1:53 pm 13:53 Cloudy 19 -7.2 5 -15 54 54 VRB 7 11 30.59 1036 10 16.0934 0 0
2:53 pm 14:53 Sunny 19 -7.2 5 -15 54 54 VRB 6 9 30.55 1035 10 16.0934 0 0
3:53 pm 15:53 Sunny 20 -6.7 5 -15 52 52 E 9 15 30.53 1034 10 16.0934 0 0
4:53 pm 16:53 Sunny 19 -7.2 5 -15 54 54 ENE 6 9 30.51 1033 10 16.0934 0 0
5:53 pm 17:53 Clear 17 -8.3 6 -14.4 62 62 E 5 7 30.5 1033 10 16.0934 0 0
6:53 pm 18:53 Cloudy 17 -8.3 8 -13.3 68 68 E 5 7 30.5 1033 10 16.0934 0 0
7:53 pm 19:53 Cloudy 18 -7.8 8 -13.3 65 65 ESE 3 6 30.48 1032 10 16.0934 0 0
8:53 pm 20:53 Cloudy 19 -7.2 6 -14.4 57 57 NE 3 6 30.5 1033 10 16.0934 0 0
9:53 pm 21:53 Cloudy 18 -7.8 7 -13.9 62 62 ENE 5 7 30.47 1032 10 16.0934 0 0
10:53 pm 22:53 Cloudy 18 -7.8 7 -13.9 62 62 Calm 30.44 1031 10 16.0934 0 0
11:53 pm 23:53 Cloudy 18 -7.8 7 -13.9 62 62 Calm 30.43 1030 10 16.0934 0 0

Powered by AerisWeather